QPF
0.05 0.05 0.05 0.04 0.02 0.02 0.03 0.03 0.02 0.02 0.03 0.02 0.02 0.01 0.01 0.02 0.03 0.02 0.02 0.02 0.01 0.02 0.03 0.04 0.03 0.02 0.01 0.02 0.02 0.01 0.01 0.01 0.01 0.01 0.01 0.02 0.02 0.02 0.02 0.02 0.03 0.09 0.05
0.06 0.06 0.06 0.06 0.04 0.04 0.04 0.03 0.02 0.02 0.03 0.03 0.02 0.02 0.03 0.03 0.03 0.04 0.03 0.02 0.01 0.02 0.02 0.04 0.05 0.05 0.03 0.01 0.01 0.02 0.02 0.01 0.01 0.01 0.01 0.01 0.01 0.01 0.01 0.01 0.04 0.08 0.05
0.07 0.07 0.06 0.07 0.07 0.04 0.04 0.05 0.04 0.04 0.04 0.04 0.03 0.03 0.04 0.04 0.03 0.04 0.03 0.02 0.02 0.01 0.02 0.03 0.04 0.04 0.03 0.04 0.04 0.03 0.02 0.02 0.02 0.01 0.01 0.01 0.01 0.01 0.01 0.02 0.04 0.05 0.04
0.06 0.06 0.06 0.07 0.08 0.06 0.06 0.08 0.07 0.05 0.05 0.05 0.04 0.04 0.04 0.05 0.04 0.03 0.02 0.02 0.02 0.01 0.02 0.02 0.03 0.04 0.05 0.06 0.07 0.06 0.04 0.03 0.03 0.02 0.02 0.01 0.01 0.01 0.01 0.03 0.03 0.02 0.02
0.05 0.05 0.07 0.07 0.06 0.07 0.08 0.07 0.07 0.07 0.07 0.06 0.04 0.04 0.02 0.04 0.04 0.03 0.02 0.02 0.03 0.02 0.02 0.03 0.04 0.03 0.04 0.07 0.08 0.07 0.07 0.05 0.05 0.04 0.03 0.03 0.03 0.02 0.02 0.02 0.02 0.01 0.01
0.04 0.05 0.07 0.08 0.06 0.08 0.10 0.08 0.09 0.10 0.09 0.08 0.05 0.03 0.03 0.03 0.04 0.04 0.03 0.03 0.03 0.02 0.02 0.02 0.03 0.03 0.03 0.05 0.06 0.07 0.07 0.08 0.07 0.07 0.06 0.05 0.05 0.04 0.02 0.02 0.01 0.01 0.01
0.04 0.05 0.05 0.08 0.09 0.08 0.09 0.08 0.07 0.09 0.08 0.07 0.08 0.07 0.03 0.02 0.03 0.02 0.02 0.02 0.02 0.01 0.03 0.03 0.04 0.05 0.03 0.02 0.03 0.05 0.05 0.07 0.09 0.09 0.08 0.08 0.08 0.06 0.04 0.03 0.01 0.01 0.01
0.04 0.05 0.06 0.07 0.09 0.09 0.08 0.08 0.09 0.09 0.07 0.07 0.08 0.09 0.07 0.05 0.03 0.01 0.02 0.02 0.02 0.03 0.03 0.03 0.03 0.05 0.04 0.04 0.03 0.03 0.03 0.04 0.07 0.08 0.09 0.10 0.11 0.10 0.07 0.04 0.02 0.01 0.01
0.03 0.04 0.04 0.05 0.08 0.08 0.08 0.10 0.10 0.11 0.09 0.08 0.08 0.09 0.08 0.08 0.05 0.04 0.03 0.02 0.03 0.04 0.04 0.04 0.04 0.05 0.05 0.05 0.05 0.03 0.03 0.02 0.03 0.05 0.08 0.10 0.11 0.10 0.10 0.11 0.07 0.04 0.03
0.03 0.03 0.04 0.05 0.07 0.05 0.07 0.08 0.07 0.09 0.08 0.08 0.07 0.06 0.06 0.07 0.07 0.07 0.06 0.03 0.03 0.03 0.03 0.02 0.03 0.04 0.04 0.06 0.05 0.03 0.02 0.02 0.02 0.03 0.05 0.09 0.10 0.09 0.08 0.09 0.06 0.04 0.03
0.02 0.02 0.02 0.04 0.06 0.06 0.06 0.06 0.06 0.06 0.07 0.07 0.07 0.06 0.05 0.06 0.06 0.08 0.08 0.05 0.05 0.04 0.03 0.03 0.03 0.03 0.03 0.05 0.05 0.02 0.02 0.02 0.02 0.02 0.03 0.04 0.06 0.08 0.07 0.05 0.04 0.04 0.04
0.03 0.02 0.03 0.05 0.06 0.06 0.06 0.06 0.06 0.05 0.05 0.06 0.06 0.05 0.06 0.08 0.07 0.07 0.07 0.06 0.05 0.04 0.03 0.03 0.03 0.03 0.03 0.03 0.02 0.02 0.02 0.02 0.02 0.03 0.03 0.04 0.05 0.08 0.08 0.06 0.06 0.06 0.06
0.03 0.04 0.03 0.06 0.05 0.06 0.06 0.05 0.05 0.05 0.05 0.06 0.05 0.05 0.05 0.06 0.06 0.07 0.06 0.05 0.04 0.03 0.03 0.03 0.02 0.01 0.01 0.02 0.03 0.03 0.03 0.03 0.02 0.02 0.02 0.02 0.02 0.04 0.05 0.05 0.04 0.04 0.05
0.03 0.04 0.04 0.04 0.05 0.05 0.05 0.06 0.05 0.06 0.05 0.05 0.04 0.07 0.06 0.06 0.06 0.06 0.06 0.08 0.07 0.05 0.05 0.04 0.02 0.01 0.01 0.02 0.04 0.03 0.03 0.03 0.03 0.03 0.03 0.03 0.03 0.03 0.03 0.05 0.05 0.04 0.04
0.02 0.02 0.03 0.04 0.05 0.05 0.06 0.06 0.05 0.07 0.08 0.07 0.07 0.09 0.09 0.06 0.05 0.05 0.05 0.07 0.08 0.07 0.06 0.06 0.04 0.02 0.02 0.03 0.03 0.04 0.05 0.03 0.03 0.03 0.02 0.02 0.02 0.03 0.03 0.03 0.05 0.05 0.04
0.02 0.02 0.03 0.04 0.05 0.06 0.06 0.06 0.05 0.07 0.08 0.07 0.09 0.09 0.10 0.09 0.08 0.07 0.07 0.07 0.08 0.08 0.07 0.05 0.04 0.01 0.03 0.02 0.03 0.03 0.04 0.04 0.03 0.03 0.03 0.03 0.02 0.03 0.03 0.03 0.04 0.04 0.04
0.02 0.03 0.04 0.04 0.04 0.04 0.05 0.06 0.05 0.05 0.06 0.06 0.06 0.07 0.08 0.08 0.07 0.06 0.07 0.07 0.06 0.07 0.07 0.05 0.03 0.02 0.03 0.04 0.04 0.05 0.04 0.04 0.03 0.04 0.03 0.03 0.03 0.03 0.04 0.04 0.04 0.04 0.04
0.03 0.04 0.04 0.04 0.03 0.03 0.04 0.06 0.04 0.04 0.05 0.05 0.06 0.06 0.05 0.06 0.05 0.06 0.08 0.08 0.07 0.07 0.07 0.05 0.04 0.04 0.04 0.04 0.04 0.05 0.04 0.03 0.02 0.03 0.03 0.02 0.02 0.02 0.03 0.03 0.04 0.04 0.03
0.04 0.05 0.05 0.04 0.04 0.03 0.03 0.04 0.05 0.05 0.05 0.05 0.05 0.05 0.05 0.05 0.06 0.08 0.08 0.08 0.08 0.07 0.06 0.05 0.03 0.04 0.03 0.03 0.05 0.06 0.06 0.06 0.04 0.03 0.03 0.03 0.03 0.03 0.03 0.03 0.03 0.03 0.04
0.03 0.04 0.05 0.04 0.03 0.04 0.04 0.04 0.05 0.06 0.05 0.04 0.04 0.06 0.08 0.07 0.08 0.09 0.09 0.10 0.09 0.07 0.06 0.05 0.04 0.04 0.04 0.04 0.04 0.06 0.06 0.06 0.04 0.03 0.03 0.03 0.04 0.04 0.03 0.02 0.02 0.02 0.03
0.02 0.03 0.04 0.03 0.04 0.05 0.05 0.05 0.04 0.04 0.05 0.06 0.05 0.04 0.04 0.05 0.05 0.05 0.04 0.06 0.06 0.06 0.06 0.05 0.05 0.05 0.05 0.06 0.06 0.06 0.07 0.06 0.04 0.03 0.04 0.04 0.04 0.03 0.02 0.02 0.02 0.02 0.02
0.03 0.03 0.05 0.05 0.05 0.06 0.07 0.07 0.06 0.05 0.05 0.05 0.05 0.03 0.02 0.02 0.03 0.03 0.03 0.03 0.03 0.04 0.05 0.05 0.06 0.06 0.07 0.09 0.09 0.08 0.08 0.07 0.05 0.03 0.04 0.03 0.03 0.03 0.02 0.02 0.02 0.02 0.03
0.05 0.08 0.08 0.06 0.07 0.08 0.08 0.07 0.05 0.03 0.03 0.04 0.04 0.04 0.03 0.02 0.03 0.02 0.04 0.04 0.03 0.03 0.03 0.04 0.05 0.06 0.07 0.08 0.10 0.10 0.09 0.08 0.06 0.04 0.04 0.03 0.03 0.03 0.03 0.03 0.04 0.04 0.04
0.05 0.06 0.05 0.04 0.03 0.05 0.06 0.04 0.03 0.02 0.04 0.03 0.03 0.03 0.04 0.03 0.03 0.03 0.03 0.02 0.03 0.03 0.03 0.03 0.04 0.06 0.07 0.09 0.09 0.09 0.07 0.06 0.04 0.03 0.04 0.05 0.04 0.04 0.04 0.04 0.05 0.05 0.04
0.06 0.05 0.05 0.05 0.04 0.05 0.05 0.04 0.03 0.03 0.03 0.03 0.02 0.03 0.03 0.03 0.04 0.04 0.03 0.02 0.03 0.03 0.03 0.03 0.04 0.04 0.03 0.03 0.03 0.03 0.03 0.04 0.04 0.04 0.05 0.05 0.04 0.04 0.04 0.04 0.04 0.04 0.03
0.05 0.04 0.05 0.05 0.05 0.06 0.05 0.05 0.05 0.04 0.04 0.04 0.04 0.04 0.04 0.04 0.04 0.04 0.03 0.02 0.02 0.03 0.03 0.02 0.02 0.02 0.03 0.02 0.02 0.02 0.03 0.03 0.04 0.04 0.04 0.05 0.04 0.04 0.04 0.04 0.03 0.03 0.03
MSLP
1017.28 1017.48 1017.61 1017.70 1017.78 1017.87 1017.99 1018.15 1018.33 1018.52 1018.68 1018.82 1018.91 1018.99 1019.08 1019.22 1019.43 1019.73 1020.12 1020.57 1021.04 1021.48 1021.86 1022.15 1022.34 1022.47 1022.56 1022.64 1022.74 1022.89 1023.08 1023.30 1023.53 1023.75 1023.94 1024.10 1024.23 1024.34 1024.44 1024.55 1024.66 1024.77 1024.89
1017.54 1017.72 1017.83 1017.90 1017.95 1018.02 1018.14 1018.30 1018.49 1018.71 1018.91 1019.09 1019.22 1019.33 1019.42 1019.54 1019.70 1019.94 1020.25 1020.62 1021.02 1021.42 1021.79 1022.10 1022.34 1022.53 1022.68 1022.81 1022.96 1023.12 1023.30 1023.51 1023.71 1023.91 1024.08 1024.23 1024.36 1024.48 1024.59 1024.70 1024.81 1024.92 1025.02
1017.78 1017.94 1018.04 1018.10 1018.14 1018.21 1018.32 1018.49 1018.70 1018.94 1019.18 1019.39 1019.55 1019.67 1019.76 1019.84 1019.95 1020.11 1020.33 1020.61 1020.93 1021.28 1021.63 1021.95 1022.24 1022.49 1022.70 1022.90 1023.08 1023.27 1023.45 1023.64 1023.82 1023.99 1024.14 1024.28 1024.40 1024.53 1024.65 1024.77 1024.90 1025.02 1025.13
1017.97 1018.13 1018.23 1018.28 1018.33 1018.41 1018.53 1018.70 1018.93 1019.19 1019.44 1019.67 1019.85 1019.97 1020.05 1020.10 1020.16 1020.24 1020.37 1020.56 1020.81 1021.09 1021.41 1021.73 1022.04 1022.33 1022.60 1022.85 1023.08 1023.29 1023.48 1023.66 1023.82 1023.96 1024.09 1024.21 1024.34 1024.47 1024.61 1024.76 1024.91 1025.05 1025.18
1018.10 1018.26 1018.36 1018.43 1018.50 1018.59 1018.73 1018.91 1019.14 1019.40 1019.66 1019.89 1020.07 1020.20 1020.26 1020.29 1020.31 1020.33 1020.39 1020.50 1020.66 1020.88 1021.15 1021.44 1021.76 1022.08 1022.39 1022.68 1022.94 1023.18 1023.38 1023.55 1023.70 1023.82 1023.93 1024.05 1024.18 1024.32 1024.48 1024.66 1024.84 1025.01 1025.16
1018.14 1018.29 1018.41 1018.51 1018.61 1018.73 1018.88 1019.07 1019.30 1019.55 1019.79 1020.02 1020.19 1020.32 1020.39 1020.41 1020.40 1020.39 1020.39 1020.43 1020.53 1020.67 1020.88 1021.13 1021.42 1021.73 1022.06 1022.37 1022.67 1022.93 1023.15 1023.33 1023.47 1023.59 1023.70 1023.82 1023.94 1024.10 1024.28 1024.48 1024.68 1024.88 1025.05
1018.06 1018.23 1018.37 1018.51 1018.64 1018.79 1018.96 1019.16 1019.38 1019.61 1019.83 1020.04 1020.21 1020.34 1020.41 1020.45 1020.44 1020.42 1020.39 1020.39 1020.41 1020.49 1020.62 1020.80 1021.05 1021.33 1021.64 1021.96 1022.28 1022.57 1022.82 1023.02 1023.19 1023.32 1023.44 1023.55 1023.69 1023.84 1024.03 1024.24 1024.46 1024.67 1024.85
1017.88 1018.05 1018.22 1018.40 1018.58 1018.77 1018.96 1019.16 1019.36 1019.57 1019.77 1019.96 1020.12 1020.26 1020.35 1020.41 1020.43 1020.42 1020.39 1020.35 1020.32 1020.33 1020.38 1020.48 1020.65 1020.89 1021.17 1021.49 1021.82 1022.14 1022.42 1022.67 1022.87 1023.04 1023.17 1023.30 1023.44 1023.59 1023.78 1023.98 1024.19 1024.40 1024.58
1017.60 1017.78 1017.98 1018.19 1018.42 1018.64 1018.86 1019.06 1019.26 1019.44 1019.61 1019.78 1019.94 1020.08 1020.21 1020.31 1020.37 1020.39 1020.36 1020.31 1020.24 1020.18 1020.15 1020.17 1020.26 1020.43 1020.67 1020.98 1021.32 1021.67 1022.01 1022.31 1022.57 1022.78 1022.95 1023.09 1023.24 1023.38 1023.55 1023.73 1023.92 1024.11 1024.27
1017.23 1017.41 1017.64 1017.89 1018.16 1018.42 1018.66 1018.87 1019.05 1019.21 1019.36 1019.51 1019.66 1019.82 1019.98 1020.12 1020.22 1020.28 1020.28 1020.23 1020.13 1020.02 1019.92 1019.86 1019.87 1019.97 1020.17 1020.46 1020.81 1021.20 1021.59 1021.96 1022.28 1022.55 1022.76 1022.94 1023.09 1023.23 1023.37 1023.52 1023.68 1023.83 1023.97
1016.79 1016.98 1017.22 1017.51 1017.81 1018.10 1018.36 1018.58 1018.76 1018.90 1019.02 1019.15 1019.30 1019.47 1019.65 1019.83 1019.98 1020.08 1020.12 1020.07 1019.97 1019.82 1019.66 1019.54 1019.48 1019.53 1019.69 1019.96 1020.32 1020.74 1021.19 1021.62 1022.01 1022.35 1022.61 1022.82 1022.98 1023.12 1023.24 1023.36 1023.48 1023.60 1023.71
1016.30 1016.48 1016.74 1017.05 1017.38 1017.69 1017.97 1018.19 1018.36 1018.48 1018.59 1018.70 1018.84 1019.01 1019.21 1019.42 1019.62 1019.77 1019.84 1019.82 1019.72 1019.56 1019.38 1019.21 1019.11 1019.12 1019.24 1019.50 1019.87 1020.32 1020.81 1021.30 1021.75 1022.14 1022.46 1022.70 1022.89 1023.02 1023.13 1023.23 1023.33 1023.42 1023.51
1015.78 1015.96 1016.22 1016.53 1016.87 1017.20 1017.48 1017.70 1017.85 1017.96 1018.05 1018.14 1018.27 1018.44 1018.66 1018.90 1019.13 1019.32 1019.43 1019.46 1019.39 1019.24 1019.06 1018.88 1018.76 1018.74 1018.85 1019.10 1019.47 1019.93 1020.45 1020.98 1021.48 1021.91 1022.28 1022.56 1022.76 1022.91 1023.03 1023.12 1023.20 1023.29 1023.37
1015.24 1015.41 1015.66 1015.98 1016.31 1016.63 1016.90 1017.11 1017.25 1017.34 1017.40 1017.48 1017.59 1017.77 1017.99 1018.25 1018.52 1018.75 1018.92 1018.99 1018.97 1018.87 1018.72 1018.56 1018.45 1018.44 1018.54 1018.77 1019.13 1019.59 1020.11 1020.65 1021.17 1021.64 1022.03 1022.35 1022.58 1022.76 1022.89 1022.99 1023.08 1023.17 1023.26
1014.70 1014.86 1015.10 1015.39 1015.70 1016.00 1016.25 1016.43 1016.55 1016.62 1016.67 1016.73 1016.84 1017.01 1017.24 1017.52 1017.82 1018.10 1018.32 1018.46 1018.51 1018.47 1018.38 1018.27 1018.20 1018.20 1018.30 1018.53 1018.87 1019.30 1019.81 1020.33 1020.85 1021.32 1021.73 1022.06 1022.33 1022.53 1022.69 1022.82 1022.94 1023.05 1023.17
1014.19 1014.34 1014.55 1014.81 1015.08 1015.33 1015.54 1015.69 1015.78 1015.83 1015.87 1015.92 1016.02 1016.19 1016.43 1016.73 1017.06 1017.38 1017.66 1017.87 1018.00 1018.05 1018.05 1018.01 1018.00 1018.04 1018.16 1018.37 1018.69 1019.09 1019.55 1020.03 1020.52 1020.97 1021.37 1021.72 1022.00 1022.24 1022.44 1022.61 1022.76 1022.91 1023.06
1013.70 1013.83 1014.01 1014.22 1014.44 1014.65 1014.81 1014.92 1014.98 1015.01 1015.03 1015.08 1015.18 1015.36 1015.60 1015.92 1016.27 1016.63 1016.97 1017.25 1017.47 1017.62 1017.71 1017.77 1017.83 1017.92 1018.07 1018.29 1018.58 1018.94 1019.34 1019.77 1020.20 1020.61 1020.99 1021.33 1021.63 1021.90 1022.13 1022.35 1022.55 1022.75 1022.94
1013.24 1013.35 1013.49 1013.65 1013.81 1013.95 1014.06 1014.13 1014.16 1014.17 1014.19 1014.24 1014.35 1014.53 1014.78 1015.11 1015.48 1015.87 1016.25 1016.60 1016.90 1017.15 1017.34 1017.51 1017.66 1017.82 1018.01 1018.24 1018.52 1018.83 1019.18 1019.54 1019.91 1020.27 1020.62 1020.95 1021.26 1021.55 1021.82 1022.08 1022.34 1022.58 1022.82
1012.80 1012.88 1012.98 1013.09 1013.19 1013.27 1013.32 1013.35 1013.35 1013.35 1013.37 1013.42 1013.53 1013.72 1013.98 1014.30 1014.68 1015.09 1015.51 1015.91 1016.28 1016.61 1016.91 1017.17 1017.42 1017.67 1017.91 1018.17 1018.45 1018.74 1019.04 1019.35 1019.66 1019.98 1020.29 1020.60 1020.91 1021.22 1021.53 1021.85 1022.15 1022.45 1022.74
1012.35 1012.41 1012.46 1012.51 1012.55 1012.58 1012.58 1012.57 1012.56 1012.55 1012.56 1012.62 1012.74 1012.93 1013.18 1013.50 1013.87 1014.28 1014.71 1015.14 1015.56 1015.97 1016.36 1016.72 1017.07 1017.41 1017.73 1018.04 1018.34 1018.62 1018.90 1019.18 1019.45 1019.72 1020.01 1020.31 1020.62 1020.96 1021.31 1021.67 1022.03 1022.38 1022.73
1011.88 1011.91 1011.93 1011.93 1011.92 1011.89 1011.85 1011.81 1011.78 1011.77 1011.79 1011.85 1011.97 1012.15 1012.39 1012.69 1013.04 1013.43 1013.85 1014.29 1014.75 1015.21 1015.67 1016.13 1016.57 1017.00 1017.41 1017.79 1018.13 1018.44 1018.72 1018.99 1019.24 1019.49 1019.77 1020.07 1020.40 1020.77 1021.16 1021.57 1021.99 1022.40 1022.81
1011.40 1011.39 1011.37 1011.33 1011.28 1011.21 1011.14 1011.08 1011.04 1011.02 1011.04 1011.10 1011.21 1011.38 1011.60 1011.86 1012.18 1012.53 1012.93 1013.36 1013.83 1014.33 1014.85 1015.38 1015.92 1016.45 1016.94 1017.40 1017.81 1018.17 1018.48 1018.76 1019.01 1019.27 1019.55 1019.87 1020.22 1020.63 1021.07 1021.54 1022.02 1022.50 1022.97
1010.91 1010.87 1010.81 1010.74 1010.65 1010.56 1010.47 1010.40 1010.34 1010.32 1010.33 1010.38 1010.48 1010.63 1010.81 1011.03 1011.30 1011.61 1011.97 1012.38 1012.85 1013.36 1013.93 1014.53 1015.15 1015.76 1016.35 1016.89 1017.37 1017.79 1018.15 1018.46 1018.74 1019.02 1019.33 1019.67 1020.06 1020.51 1021.01 1021.54 1022.09 1022.64 1023.17
1010.44 1010.37 1010.29 1010.19 1010.09 1009.98 1009.88 1009.79 1009.73 1009.69 1009.69 1009.73 1009.81 1009.91 1010.05 1010.23 1010.45 1010.71 1011.02 1011.41 1011.86 1012.39 1012.98 1013.63 1014.31 1015.00 1015.67 1016.29 1016.85 1017.33 1017.74 1018.09 1018.41 1018.72 1019.05 1019.43 1019.86 1020.36 1020.92 1021.52 1022.14 1022.75 1023.35
1010.02 1009.93 1009.83 1009.73 1009.62 1009.51 1009.40 1009.31 1009.23 1009.18 1009.16 1009.17 1009.21 1009.28 1009.37 1009.50 1009.67 1009.88 1010.16 1010.51 1010.95 1011.48 1012.09 1012.78 1013.51 1014.25 1014.98 1015.66 1016.27 1016.81 1017.27 1017.66 1018.01 1018.35 1018.71 1019.12 1019.60 1020.14 1020.75 1021.40 1022.08 1022.76 1023.41
1009.69 1009.59 1009.49 1009.39 1009.29 1009.18 1009.07 1008.97 1008.87 1008.80 1008.75 1008.73 1008.73 1008.76 1008.81 1008.89 1009.01 1009.19 1009.43 1009.76 1010.19 1010.72 1011.34 1012.04 1012.79 1013.57 1014.34 1015.06 1015.71 1016.28 1016.77 1017.19 1017.56 1017.92 1018.31 1018.74 1019.24 1019.82 1020.46 1021.16 1021.88 1022.60 1023.29
Thickness
5754 5753 5751 5750 5752 5751 5750 5749 5749 5747 5748 5748 5748 5748 5747 5747 5746 5744 5739 5734 5732 5730 5729 5727 5726 5725 5723 5722 5721 5720 5719 5718 5717 5716 5714 5714 5713 5712 5711 5710 5710 5709 5708
5752 5752 5750 5750 5751 5750 5750 5749 5749 5748 5749 5748 5748 5747 5747 5747 5745 5744 5742 5737 5734 5732 5730 5728 5727 5726 5724 5723 5722 5720 5719 5718 5717 5715 5714 5713 5712 5711 5710 5710 5709 5708 5708
5752 5751 5752 5751 5751 5750 5749 5748 5748 5749 5749 5749 5748 5748 5748 5747 5746 5744 5744 5742 5739 5734 5732 5730 5728 5727 5725 5724 5723 5722 5720 5719 5717 5716 5714 5713 5712 5711 5710 5709 5709 5708 5708
5751 5751 5752 5752 5749 5750 5750 5749 5750 5750 5749 5749 5749 5749 5749 5747 5747 5746 5745 5743 5742 5741 5736 5733 5730 5728 5727 5726 5724 5723 5721 5720 5718 5717 5715 5713 5712 5711 5710 5709 5709 5708 5707
5752 5752 5752 5750 5750 5750 5750 5751 5750 5750 5748 5748 5749 5749 5750 5750 5749 5749 5747 5746 5743 5742 5741 5736 5733 5731 5729 5728 5726 5724 5723 5721 5719 5717 5715 5714 5712 5711 5710 5709 5708 5708 5707
5752 5752 5751 5750 5750 5750 5749 5749 5747 5748 5748 5748 5751 5751 5751 5752 5751 5751 5749 5749 5746 5744 5743 5741 5737 5735 5732 5730 5728 5726 5724 5723 5721 5719 5717 5715 5713 5711 5710 5709 5708 5708 5707
5754 5752 5753 5751 5750 5750 5749 5750 5749 5748 5749 5749 5748 5748 5751 5754 5753 5751 5751 5751 5750 5747 5744 5742 5741 5740 5737 5733 5730 5728 5726 5724 5723 5721 5719 5717 5715 5713 5711 5710 5709 5708 5708
5755 5755 5753 5752 5751 5750 5749 5748 5747 5748 5749 5750 5746 5744 5743 5747 5750 5754 5752 5750 5750 5749 5747 5746 5743 5740 5739 5737 5735 5731 5728 5726 5724 5723 5721 5719 5717 5715 5714 5712 5711 5709 5709
5757 5755 5754 5753 5752 5752 5751 5749 5748 5747 5747 5749 5749 5744 5740 5738 5746 5751 5750 5751 5749 5748 5748 5747 5744 5741 5739 5737 5736 5733 5730 5728 5726 5724 5722 5721 5719 5717 5715 5713 5712 5710 5709
5759 5757 5755 5754 5752 5753 5751 5750 5752 5749 5747 5746 5748 5747 5746 5744 5739 5741 5747 5749 5748 5746 5746 5747 5746 5743 5740 5737 5735 5733 5731 5729 5727 5725 5724 5722 5720 5718 5717 5715 5713 5711 5710
5760 5759 5757 5755 5753 5753 5751 5750 5749 5749 5749 5747 5747 5747 5745 5744 5743 5738 5737 5741 5746 5748 5747 5746 5745 5743 5741 5738 5736 5734 5731 5729 5727 5726 5724 5723 5721 5719 5717 5716 5714 5712 5710
5763 5761 5759 5756 5754 5753 5752 5750 5749 5749 5748 5747 5747 5747 5744 5742 5741 5740 5737 5738 5739 5743 5744 5744 5743 5742 5740 5738 5736 5733 5730 5728 5726 5725 5724 5722 5721 5719 5717 5715 5713 5712 5710
5764 5762 5761 5757 5756 5754 5752 5751 5749 5749 5748 5746 5745 5746 5746 5744 5744 5741 5738 5738 5737 5741 5740 5741 5740 5738 5737 5736 5734 5730 5728 5726 5724 5723 5722 5720 5719 5717 5715 5713 5712 5710 5708
5768 5765 5761 5758 5756 5754 5753 5751 5751 5749 5748 5746 5746 5744 5743 5744 5743 5741 5739 5735 5732 5734 5735 5735 5738 5735 5733 5731 5729 5727 5726 5723 5722 5720 5719 5717 5716 5714 5713 5711 5709 5708 5706
5769 5765 5762 5759 5757 5755 5753 5751 5750 5748 5747 5746 5745 5743 5741 5742 5741 5740 5739 5736 5730 5726 5727 5729 5730 5731 5729 5727 5725 5724 5722 5720 5718 5716 5715 5714 5712 5711 5709 5708 5706 5705 5703
5767 5765 5762 5760 5757 5754 5752 5750 5749 5747 5745 5744 5742 5740 5739 5740 5739 5738 5736 5734 5731 5726 5722 5726 5724 5725 5723 5723 5720 5719 5717 5715 5713 5712 5711 5709 5708 5706 5705 5703 5702 5701 5699
5766 5763 5761 5759 5756 5754 5751 5749 5747 5746 5743 5742 5741 5739 5737 5736 5736 5735 5733 5730 5728 5725 5719 5721 5721 5720 5717 5716 5716 5715 5714 5712 5711 5708 5706 5704 5702 5701 5699 5698 5696 5695 5693
5765 5763 5761 5758 5755 5753 5751 5748 5745 5744 5742 5739 5737 5735 5734 5734 5731 5731 5729 5727 5724 5721 5718 5714 5714 5714 5712 5712 5711 5710 5710 5709 5707 5703 5700 5698 5696 5694 5693 5692 5690 5689 5687
5763 5761 5759 5756 5753 5751 5748 5745 5743 5741 5739 5737 5734 5731 5729 5728 5726 5725 5724 5723 5721 5720 5716 5713 5711 5709 5708 5708 5706 5706 5705 5702 5702 5699 5695 5692 5689 5688 5686 5685 5683 5682 5680
5761 5759 5756 5753 5751 5748 5746 5743 5740 5737 5735 5732 5730 5728 5726 5724 5721 5719 5719 5717 5716 5714 5712 5710 5708 5705 5703 5702 5700 5699 5697 5696 5694 5694 5690 5687 5684 5681 5679 5678 5676 5674 5673
5758 5756 5753 5750 5747 5745 5743 5739 5736 5734 5730 5727 5724 5722 5720 5717 5714 5713 5714 5712 5710 5708 5706 5704 5701 5699 5696 5693 5692 5692 5690 5688 5687 5685 5683 5681 5679 5677 5674 5670 5668 5667 5665
5754 5752 5749 5746 5743 5741 5736 5732 5730 5729 5725 5722 5719 5717 5715 5711 5707 5704 5703 5701 5700 5700 5698 5696 5694 5691 5688 5687 5685 5685 5683 5681 5678 5677 5674 5673 5672 5670 5667 5664 5661 5658 5656
5749 5746 5744 5741 5737 5732 5729 5726 5723 5722 5720 5717 5714 5711 5711 5707 5704 5702 5697 5694 5692 5690 5687 5687 5685 5682 5680 5679 5677 5676 5674 5672 5669 5668 5666 5664 5663 5661 5659 5655 5652 5650 5647
5743 5740 5737 5735 5731 5726 5721 5719 5717 5716 5713 5710 5707 5704 5701 5698 5696 5693 5692 5689 5687 5683 5681 5679 5676 5673 5672 5669 5668 5667 5665 5664 5662 5659 5657 5655 5654 5651 5650 5646 5642 5640 5637
5736 5733 5730 5726 5723 5717 5712 5711 5709 5709 5706 5702 5699 5695 5693 5689 5683 5683 5683 5680 5678 5674 5671 5668 5665 5663 5661 5659 5659 5660 5658 5657 5654 5651 5647 5645 5643 5642 5640 5638 5634 5629 5626
5728 5725 5722 5718 5715 5709 5703 5702 5701 5704 5700 5696 5690 5686 5680 5678 5674 5673 5674 5671 5667 5665 5663 5662 5658 5655 5654 5652 5649 5648 5647 5646 5644 5641 5637 5634 5633 5631 5630 5628 5625 5621 5617